, AK

(GMT )
Shemya

Weather History for PASY - March, 2013

Change the Weather History Date:

Thursday, March 21, 2013

  Actual Average Record
Temperature  
Mean Temperature 34 °F -  
Max Temperature 37 °F 34 °F 42 °F (1997)
Min Temperature 32 °F 28 °F 12 °F (1970)
Degree Days  
Heating Degree Days 30    
Moisture  
Dew Point 34 °F    
Average Humidity 95    
Maximum Humidity 100    
Minimum Humidity 63    
Precipitation  
Precipitation 0.00 in - - ()
Sea Level Pressure  
Sea Level Pressure 29.42 in    
Wind  
Wind Speed 21 mph (SSE)    
Max Wind Speed 38 mph    
Max Gust Speed 45 mph    
Visibility 4 miles    
Events Rain , Snow    
Averages and records for this station are not official NWS values.
T = Trace of Precipitation, MM = Missing Value Source: NWS Daily Summary

Daily Weather History Graph

Daily Weather History Graph

Search for Another Location

Airport or City:

Trip Planner

Search our weather history database for the weather conditions in past years. The results will help you decide how hot, cold, wet, or windy it might be!

Date:

Astronomy

Mar. 20, 2013 Rise Set
Actual Time 9:24 AM HDT 9:37 PM HDT
Civil Twilight 8:50 AM HDT 10:12 PM HDT
Nautical Twilight 8:10 AM HDT 10:52 PM HDT
Astronomical Twilight 7:27 AM HDT 11:35 PM HDT
Moon 3:48 PM HDT (3/21) 6:32 AM HDT (3/21)
Length of Visible Light 13h 21m
Length of Day
12h 13m
Waxing Gibbous, 70% of the Moon is Illuminated
Mar 21
Waxing Gibbous
Mar 27
Full
Apr 2
Last Quarter
Apr 10
New
Apr 18
First Quarter

Hourly Weather History & Observations

Time (HDT) Temp. Windchill Dew Point Humidity Pressure Visibility Wind Dir Wind Speed Gust Speed Precip Events Conditions
12:56 AM 33.1 °F 26.1 °F 24.1 °F 70% 29.86 in 10.0 mi SSE 8.1 mph - N/A   Partly Cloudy
1:15 AM 33.8 °F 25.8 °F 24.8 °F 70% 29.85 in 10.0 mi SSE 10.4 mph - N/A   Mostly Cloudy
1:56 AM 33.1 °F 23.0 °F 24.1 °F 70% 29.84 in 10.0 mi SSE 15.0 mph - N/A   Mostly Cloudy
2:56 AM 34.0 °F 23.0 °F 26.1 °F 73% 29.81 in 10.0 mi SE 18.4 mph - N/A   Overcast
3:56 AM 34.0 °F 24.6 °F 27.0 °F 75% 29.77 in 10.0 mi SE 13.8 mph - N/A   Overcast
4:25 AM 33.8 °F 22.8 °F 28.4 °F 81% 29.76 in 10.0 mi ESE 18.4 mph - N/A   Overcast
4:56 AM 35.1 °F 24.5 °F 30.0 °F 82% 29.76 in 10.0 mi SE 18.4 mph - N/A   Overcast
5:56 AM 33.1 °F 21.2 °F 30.9 °F 92% 29.72 in 7.0 mi ESE 20.7 mph - N/A Snow Light Snow
6:56 AM 33.1 °F 19.6 °F 30.0 °F 89% 29.67 in 4.0 mi ESE 27.6 mph 32.2 mph N/A Snow Light Snow
7:38 AM 32.0 °F 18.6 °F 30.2 °F 93% 29.62 in 2.5 mi East 25.3 mph - N/A Snow Light Snow
7:51 AM 33.8 °F 21.0 °F 30.2 °F 87% 29.59 in - East 25.3 mph - N/A Snow Light Snow
7:56 AM 32.0 °F 18.1 °F 32.0 °F 100% 29.60 in 2.0 mi East 27.6 mph - N/A Snow Light Snow
8:03 AM 32.0 °F 17.9 °F 32.0 °F 100% 29.57 in - East 28.8 mph - N/A Snow Light Snow
8:56 AM 34.0 °F 19.7 °F 33.1 °F 96% 29.55 in 9.0 mi East 33.4 mph - N/A   Overcast
9:56 AM 34.0 °F 19.5 °F 34.0 °F 100% 29.50 in 8.0 mi East 34.5 mph 40.3 mph N/A Snow Light Snow
10:05 AM 35.6 °F 22.1 °F 35.6 °F 100% 29.48 in 6.2 mi East 32.2 mph 41.4 mph N/A Rain Light Rain
10:56 AM 36.0 °F 22.0 °F 36.0 °F 100% 29.48 in 4.0 mi ESE 35.7 mph 43.7 mph N/A Snow Light Snow
11:56 AM 36.0 °F 22.2 °F 36.0 °F 100% 29.45 in 3.0 mi ESE 34.5 mph 42.6 mph N/A Snow Light Snow
12:08 PM 35.6 °F 21.1 °F 35.6 °F 100% 29.45 in 2.5 mi ESE 38.0 mph 44.9 mph N/A Snow Light Snow
12:27 PM 35.6 °F 21.7 °F 35.6 °F 100% 29.43 in - ESE 34.5 mph 39.1 mph N/A Snow Light Snow
12:37 PM 35.6 °F 22.3 °F 35.6 °F 100% 29.43 in 2.5 mi ESE 31.1 mph 39.1 mph N/A Snow Light Snow
12:56 PM 37.0 °F 24.1 °F 37.0 °F 100% 29.43 in 2.5 mi ESE 32.2 mph 41.4 mph N/A Snow Light Snow
1:36 PM 37.4 °F 25.6 °F 37.4 °F 100% 29.41 in 2.5 mi SE 26.5 mph 35.7 mph N/A Snow Light Snow
1:56 PM 37.0 °F 24.9 °F 37.0 °F 100% 29.40 in 2.0 mi SE 27.6 mph 35.7 mph N/A Snow Light Snow
2:38 PM 37.4 °F 24.2 °F 37.4 °F 100% 29.36 in 1.5 mi SE 34.5 mph 41.4 mph N/A Snow Light Snow
2:48 PM 37.4 °F 23.8 °F 37.4 °F 100% 29.35 in - SE 36.8 mph 42.6 mph N/A Snow Light Snow
2:56 PM 37.0 °F 23.5 °F 37.0 °F 100% 29.32 in 2.5 mi ESE 35.7 mph 42.6 mph N/A Snow Light Snow
3:07 PM 37.4 °F 24.0 °F 37.4 °F 100% 29.35 in 4.0 mi SE 35.7 mph - N/A   Overcast
3:30 PM 37.4 °F 24.8 °F 37.4 °F 100% 29.35 in 1.8 mi SE 31.1 mph - N/A Snow Light Snow
3:34 PM 37.4 °F 25.2 °F 37.4 °F 100% 29.35 in 1.2 mi SE 28.8 mph 35.7 mph N/A Snow Light Snow
3:54 PM 37.4 °F 26.4 °F 37.4 °F 100% 29.35 in 1.5 mi SE 23.0 mph - N/A Snow Light Snow
3:56 PM 37.0 °F 25.6 °F 37.0 °F 100% 29.35 in 1.5 mi SE 24.2 mph - N/A Snow Light Snow
4:26 PM 37.4 °F 26.6 °F 37.4 °F 100% 29.33 in 2.0 mi SE 21.9 mph - N/A Snow Light Snow
4:56 PM 37.0 °F 26.2 °F 37.0 °F 100% 29.32 in 2.0 mi SE 21.9 mph - N/A Snow Light Snow
5:29 PM 37.4 °F 26.4 °F 37.4 °F 100% 29.31 in 1.5 mi SE 23.0 mph - N/A Snow Light Snow
5:40 PM 37.4 °F 26.4 °F 37.4 °F 100% 29.30 in 1.2 mi SE 23.0 mph - N/A Snow Light Snow
5:47 PM 37.4 °F 26.6 °F 37.4 °F 100% 29.30 in 1.2 mi SE 21.9 mph - N/A Snow Light Snow
5:56 PM 37.0 °F 26.4 °F 37.0 °F 100% 29.30 in 1.2 mi SE 20.7 mph - N/A Snow Light Snow
6:07 PM 37.4 °F 27.2 °F 37.4 °F 100% 29.29 in 1.5 mi SE 19.6 mph - N/A   Overcast
6:16 PM 37.4 °F 26.9 °F 37.4 °F 100% 29.29 in 1.8 mi SE 20.7 mph - N/A   Overcast
6:25 PM 37.4 °F 27.5 °F 37.4 °F 100% 29.30 in 1.5 mi SSE 18.4 mph - N/A   Overcast
6:32 PM 37.4 °F 26.9 °F 37.4 °F 100% 29.30 in 1.2 mi SSE 20.7 mph - N/A   Overcast
6:44 PM 37.4 °F 27.5 °F 37.4 °F 100% 29.30 in 1.0 mi SSE 18.4 mph - N/A Snow Light Snow
6:47 PM 37.4 °F 27.5 °F 37.4 °F 100% 29.30 in 0.8 mi SSE 18.4 mph - N/A Snow Light Snow
6:56 PM 37.0 °F 27.4 °F 37.0 °F 100% 29.30 in 1.0 mi SSE 17.3 mph - N/A Snow Light Snow
7:06 PM 37.4 °F 27.8 °F 37.4 °F 100% 29.29 in 1.5 mi SSE 17.3 mph - N/A Rain Light Rain
7:09 PM 37.4 °F 28.2 °F 37.4 °F 100% 29.29 in - SSE 16.1 mph - N/A Rain Light Rain
7:19 PM 37.4 °F 27.8 °F 37.4 °F 100% 29.29 in 4.0 mi South 17.3 mph - N/A Rain Light Rain
7:32 PM 33.8 °F 23.9 °F 33.8 °F 100% 29.29 in 5.0 mi SW 15.0 mph - N/A Snow Light Snow
7:37 PM 33.8 °F 23.9 °F 33.8 °F 100% 29.29 in 4.0 mi SW 15.0 mph - N/A Snow Light Snow
7:44 PM 33.8 °F 22.8 °F 33.8 °F 100% 29.30 in 4.0 mi SW 18.4 mph - N/A Snow Light Snow
7:56 PM 34.0 °F 23.8 °F 33.1 °F 96% 29.31 in 3.0 mi SW 16.1 mph - N/A Snow Light Snow
8:26 PM 33.8 °F 22.5 °F 33.8 °F 100% 29.31 in 6.2 mi SSW 19.6 mph - N/A   Overcast
8:56 PM 33.1 °F 20.6 °F 32.0 °F 96% 29.31 in 1.8 mi SW 23.0 mph - N/A Snow Light Snow
9:01 PM 33.8 °F 21.9 °F 32.0 °F 93% 29.31 in 1.5 mi SW 21.9 mph - N/A Snow Light Snow
9:09 PM 33.8 °F 21.9 °F 32.0 °F 93% 29.30 in 1.2 mi SW 21.9 mph - N/A Snow Light Snow
9:15 PM 33.8 °F 21.9 °F 32.0 °F 93% 29.30 in 1.8 mi SW 21.9 mph - N/A Snow Light Snow
9:21 PM 33.8 °F 22.2 °F 32.0 °F 93% 29.30 in - SW 20.7 mph - N/A Snow Light Snow
9:29 PM 33.8 °F 21.6 °F 32.0 °F 93% 29.31 in - SSW 23.0 mph - N/A Snow Light Snow
9:38 PM 33.8 °F 22.8 °F 32.0 °F 93% 29.31 in 1.8 mi SSW 18.4 mph - N/A Snow Light Snow
9:43 PM 33.8 °F 23.9 °F 32.0 °F 93% 29.31 in 1.2 mi SSW 15.0 mph - N/A Snow Light Snow
9:48 PM 33.8 °F 22.5 °F 32.0 °F 93% 29.31 in 1.8 mi SSW 19.6 mph - N/A Snow Light Snow
9:52 PM 33.8 °F 22.5 °F 32.0 °F 93% 29.31 in - SSW 19.6 mph - N/A Snow Light Snow
9:56 PM 33.1 °F 21.9 °F 33.1 °F 100% 29.32 in 4.0 mi SSW 18.4 mph - N/A Snow Light Snow
10:18 PM 33.8 °F 22.8 °F 33.8 °F 100% 29.32 in 6.2 mi SSW 18.4 mph - N/A   Overcast
10:23 PM 33.8 °F 22.8 °F 33.8 °F 100% 29.31 in 10.0 mi SSW 18.4 mph - N/A   Overcast
10:32 PM 33.8 °F 24.8 °F 33.8 °F 100% 29.32 in 6.0 mi SSW 12.7 mph - N/A Snow Light Snow
10:46 PM 33.8 °F 23.9 °F 33.8 °F 100% 29.32 in 6.2 mi SSW 15.0 mph - N/A   Overcast
10:56 PM 34.0 °F 24.6 °F 33.1 °F 96% 29.33 in 10.0 mi SSW 13.8 mph - N/A   Overcast
11:56 PM 35.1 °F 23.5 °F 27.0 °F 72% 29.32 in 10.0 mi SSW 21.9 mph - N/A   Partly Cloudy